sat.trackr.live / text

‹ back to catalog

RSW-01

NORAD 49112 · 2021-076A

PAYLOAD ACTIVE UNKNOWN

§ Identity

Operator
Country
PRC
Launch date
2021-08-24
Launch site
JSC
Launch vehicle
Mass (kg)
RCS (m²)

External: N2YO · Heavens-Above · Gunter

§ Orbital elements

Epoch: 2026-09-20T22:44:00.837888Z

Period
107.23 min
Inclination
86.4072°
Eccentricity
0.0015751
Mean motion
13.42863891 rev/d
Perigee alt
1,086.9 km
Apogee alt
1,110.4 km
Semi-major
7,476.8 km
B*
2.4503e-4
RAAN
123.6376°
Arg perigee
150.8001°
Mean anomaly
209.4027°
Rev number
24,873

§ Raw data

RSW-011 49112U 21076A   26263.94723192  .00000155  00000+0  24503-3 0  99962 49112  86.4072 123.6376 0015751 150.8001 209.4027 13.42863891248731

JSON: /api/v1/satellites/49112 · /tle

For live sub-satellite position, see the globe view (requires WebGL).

§ Visibility from observer

Set your observer location to see the next 7 days of passes ≥ 10°. The values pass through the URL so the page stays shareable.

No JS? Fill the form by hand. The geolocation button needs JavaScript.